Location: ?????
(31.8092°N, 35.2590°E)
Time: 19:22:22
(UTC+00:00)

Cosmos 1300 - Pass Details

Date: 20 June 2021
Orbit: 509 x 513 km, 82.5° (Epoch: 31 July)

Event Time Altitude Azimuth Distance (km) Brightness Sun altitude
Rises 19:27:11 0° 355° (N) 2,626 7.2 -26.2°
Reaches altitude 10° 19:29:19 10° 358° (N) 1,735 6.1 -26.4°
Enters shadow 19:31:35 34° 5° (N) 853 4.1 -26.7°
